Location: Heidgraben
(53.7081°N, 9.6576°E)
Time: 10:37:58
(UTC+00:00)

Helios 1B rocket - Pass Details

Date: 05 July 2020
Orbit: 574 x 584 km, 98.1° (Epoch: 05 August)

Event Time Altitude Azimuth Distance (km) Brightness Sun altitude
Rises 23:46:17 0° 18° (NNE) 2,820 7.7 -13.5°
Reaches altitude 10° 23:48:29 10° 23° (NNE) 1,913 6.3 -13.5°
Maximum altitude 23:52:34 55° 101° (E) 707 2.8 -13.4°
Enters shadow 23:55:08 21° 173° (S) 1,325 3.7 -13.4°
